Location: Poughquag
(41.6090°N, 73.6820°W)
Time: 12:00:35
(UTC-04:00)

Vanguard 1 Rocket - Pass Details

Date: 03 June 2020
Orbit: 653 x 4224 km, 34.3° (Epoch: 06 July)

Event Time Altitude Azimuth Distance (km) Brightness Sun altitude
Rises 06:48:19 0° 276° (W) 5,282 10.7 13.8°
Reaches altitude 10° 06:54:01 10° 258° (WSW) 3,548 9.9 14.8°
Maximum altitude 06:58:29 15° 225° (SW) 2,607 9.3 15.6°
Drops below altitude 10° 07:01:56 10° 190° (S) 2,601 9.5 16.3°
Sets 07:05:07 0° 166° (SSE) 3,237 10.2 16.8°
